Temp
68 67 67 67 68 67 67 67 67 67 67 67 67 69 68 67 63 59 59 60 62 63 66 62 64 67 67 65 65 65 66 65 64 65 66 66 66 60 58 60 64 65 66 67 70 70 70 69 67 68 67 67 67 68 68 67 68 68 68 68 67 65 63 64 65 65 65 65 65 65 64 64 64 64
68 67 67 67 67 68 67 67 67 67 67 67 67 67 68 68 67 62 61 62 64 63 66 66 64 66 66 66 65 65 65 63 64 66 66 66 66 59 58 59 60 59 60 61 64 68 69 69 69 68 68 68 68 68 68 68 69 69 68 68 66 63 62 64 65 65 65 65 65 65 64 64 63 64
68 67 67 67 68 68 67 67 67 67 67 67 67 67 67 66 69 65 64 62 63 67 63 66 68 66 66 66 65 65 66 63 64 66 65 66 62 59 60 58 58 57 57 59 60 65 68 68 68 68 68 68 68 69 69 68 69 69 67 65 62 61 61 64 65 65 65 66 65 65 64 64 64 63
68 68 67 67 68 68 67 67 66 66 67 68 67 67 67 66 67 67 64 65 63 65 66 66 66 67 66 65 64 65 65 63 62 66 65 65 60 62 64 58 57 56 56 57 57 59 63 66 67 68 68 68 68 68 68 68 66 64 63 62 60 59 60 63 64 65 65 65 65 65 65 65 64 64
68 68 68 68 68 68 67 67 67 66 67 67 67 67 67 66 65 66 65 65 61 61 62 66 64 66 66 63 65 64 64 63 63 63 65 64 63 63 63 63 57 55 55 55 54 55 57 60 64 66 68 67 67 67 65 61 60 61 61 61 60 59 59 60 63 64 65 65 65 65 65 65 64 64
68 68 68 68 68 68 68 68 67 67 66 67 67 66 66 66 64 66 67 64 62 61 61 63 64 64 65 62 65 63 63 62 63 64 63 63 65 63 63 64 62 55 55 55 54 55 55 56 59 60 64 61 57 57 57 56 56 59 61 59 58 57 57 58 59 61 64 64 64 64 64 64 64 64
68 67 68 68 68 67 67 67 68 67 67 67 67 66 66 66 65 64 67 64 63 62 61 63 62 62 63 63 63 64 64 64 64 63 63 63 64 64 63 63 64 55 54 54 55 54 54 54 56 56 56 55 56 56 54 53 53 55 56 55 54 55 55 56 57 60 63 63 63 64 63 63 63 63
68 68 67 68 68 67 67 67 67 67 68 67 67 67 66 67 65 64 64 68 64 62 60 60 62 62 62 63 64 64 64 63 62 64 64 64 63 64 63 64 64 59 54 54 54 54 54 54 55 55 55 54 54 55 52 52 52 52 53 53 53 53 54 54 54 56 60 61 62 63 63 62 63 63
69 68 68 68 68 67 67 67 66 67 66 67 67 67 66 67 66 64 64 65 65 63 61 60 62 63 63 64 64 64 61 61 62 63 63 63 63 63 63 63 63 57 53 54 54 54 54 54 54 54 55 53 53 53 52 51 51 51 51 52 52 53 53 53 53 53 55 55 56 57 59 58 60 63
70 69 69 69 68 67 67 67 67 66 67 67 67 67 66 66 65 64 64 65 64 65 63 62 60 62 62 61 62 63 63 60 59 60 62 62 63 62 61 61 61 61 59 59 58 55 54 53 53 54 54 53 52 52 51 51 51 51 51 51 51 52 52 52 52 52 52 53 54 54 55 55 56 59
70 70 70 69 68 68 68 68 67 67 67 67 67 67 67 66 65 64 64 63 63 63 62 61 62 61 63 62 60 61 63 62 62 59 58 57 60 61 61 60 61 62 60 58 56 57 58 56 57 55 54 53 52 52 52 51 51 51 51 50 51 51 51 51 51 51 51 50 50 51 52 53 55 57
70 70 70 70 69 69 69 69 68 68 67 67 67 67 68 66 65 64 63 63 63 62 62 61 60 61 61 61 62 62 61 59 58 60 59 57 57 58 61 63 61 61 60 58 58 56 56 56 56 55 54 54 54 53 53 52 52 52 51 50 50 51 51 51 51 51 50 50 50 49 49 50 51 52
69 69 70 70 70 69 69 65 65 66 66 68 67 67 67 66 65 64 63 63 62 62 61 60 61 60 60 60 60 58 58 57 58 59 60 59 60 60 59 60 62 61 58 57 57 56 58 57 58 58 58 57 54 54 54 54 53 52 51 50 50 50 50 50 51 51 50 50 50 49 49 49 49 49
68 69 70 70 69 66 64 61 58 57 58 62 68 68 67 66 66 65 63 63 63 62 60 60 60 59 59 60 60 59 60 62 62 59 59 57 58 58 57 58 59 60 59 57 55 56 57 58 58 57 56 57 55 55 55 57 55 52 50 50 50 50 49 50 50 50 49 49 49 49 48 49 49 48
67 68 69 70 69 66 63 63 55 54 54 55 57 58 61 63 68 66 64 63 63 62 63 62 60 59 59 60 61 61 61 61 61 60 59 59 58 56 54 53 56 59 60 57 57 57 57 58 57 57 57 57 55 55 55 52 51 51 50 50 50 49 49 49 49 49 49 48 48 48 48 48 48 47
68 68 68 68 69 69 69 68 63 57 53 52 52 52 54 54 56 59 66 65 63 63 63 61 61 61 61 61 61 61 61 60 60 61 60 59 58 56 55 57 56 59 60 59 57 56 57 58 58 57 57 57 56 56 54 51 50 50 49 49 49 49 49 49 49 49 48 48 48 47 47 47 47 47
68 68 67 67 68 70 66 67 67 65 62 53 52 53 53 53 53 51 52 56 67 66 66 64 62 62 63 61 61 63 63 63 60 59 59 59 59 59 57 58 60 57 60 59 57 55 56 55 54 55 56 56 56 56 52 50 50 49 49 49 48 48 48 49 48 48 48 47 47 47 46 46 46 46
68 68 68 67 67 67 68 67 67 66 65 63 60 60 61 62 60 53 50 51 54 60 67 67 65 65 66 64 64 65 64 62 60 59 59 60 59 59 59 61 61 58 59 59 56 54 54 54 54 54 55 54 55 55 52 49 49 49 49 49 48 48 48 48 48 47 47 47 47 46 46 45 45 45
69 69 68 68 68 67 66 67 66 66 65 64 63 62 62 63 64 63 62 62 62 64 68 68 69 67 66 68 67 65 65 65 65 64 63 63 63 62 61 58 57 55 58 59 57 54 54 53 53 54 56 54 54 52 49 48 48 48 48 48 48 48 47 47 47 47 47 47 46 46 46 45 44 44
69 69 69 68 68 67 67 62 54 60 66 65 64 62 63 63 64 64 62 57 58 65 68 69 69 68 67 60 65 63 64 66 66 65 64 64 63 60 58 58 55 54 55 58 57 54 51 53 53 53 52 52 51 50 50 48 48 48 47 47 47 47 47 46 46 46 46 46 46 46 45 44 44 43
68 68 69 68 67 67 67 59 50 51 58 66 65 64 64 64 64 63 64 54 49 50 52 53 54 54 52 51 51 51 53 61 63 63 60 59 61 58 55 56 54 54 54 55 58 56 51 50 52 50 47 49 50 49 49 49 46 46 46 47 47 46 46 46 46 46 46 46 46 46 45 44 44 44
67 68 67 68 68 67 66 53 48 49 57 66 66 65 64 63 62 63 63 61 57 49 49 48 47 47 48 50 49 49 50 51 57 63 59 61 60 57 57 56 55 55 52 53 57 55 52 50 51 49 46 47 48 49 50 49 48 45 45 45 46 45 45 45 45 45 45 45 46 45 45 44 44 47
66 66 65 63 65 66 63 51 48 48 57 67 67 66 65 64 63 64 63 61 60 58 57 58 56 54 51 54 57 58 48 50 57 64 65 63 61 58 58 58 54 51 51 53 57 55 51 48 50 50 46 47 51 50 51 49 49 49 49 48 47 45 45 44 45 45 45 45 45 45 44 43 45 49
63 64 65 62 53 52 52 49 47 47 50 65 67 67 65 64 63 66 64 63 63 61 61 61 60 61 59 58 58 59 54 55 61 63 65 64 63 61 60 59 57 55 56 56 57 58 55 52 51 53 53 52 51 49 50 50 49 48 48 47 46 45 45 44 44 44 45 45 45 44 44 43 45 49
64 63 63 65 55 50 50 48 46 47 46 53 66 67 66 66 66 61 63 61 59 63 61 60 59 59 58 58 57 57 56 56 58 60 62 63 63 63 61 59 56 58 58 56 53 59 50 52 52 51 51 52 51 47 48 49 48 47 47 47 47 47 48 48 48 48 44 44 44 43 43 43 44 48
64 64 64 64 57 49 48 47 47 46 47 46 60 66 56 55 52 62 63 62 60 62 61 60 59 58 57 57 57 57 57 57 58 59 61 61 62 63 65 64 60 57 59 55 50 59 54 50 52 50 51 51 49 49 46 46 46 46 46 47 48 47 48 49 48 47 47 47 46 45 46 42 43 44
64 65 65 64 56 48 48 47 46 46 46 47 55 53 51 51 48 54 61 60 60 60 59 58 58 57 58 57 57 56 57 57 58 58 60 61 60 61 62 63 64 63 60 54 55 59 57 54 53 52 51 52 52 47 48 48 46 43 42 43 46 47 47 47 46 46 46 47 47 43 43 42 42 42
66 65 65 62 52 49 48 46 46 46 46 52 48 48 49 47 48 60 59 56 58 58 57 56 57 58 57 58 58 57 58 58 57 58 59 59 59 60 60 59 57 57 56 56 55 58 59 56 52 55 55 53 52 49 50 48 45 44 45 43 43 43 43 45 46 46 46 47 46 45 46 45 46 45
65 58 53 52 50 49 47 46 45 46 46 46 47 47 46 51 57 60 60 58 57 57 57 57 58 59 58 59 59 58 56 54 55 56 57 57 57 58 58 55 55 54 55 56 57 58 59 57 54 54 55 55 54 54 54 51 46 44 44 41 41 41 41 43 46 46 46 45 45 44 46 47 46 46
53 51 50 49 49 48 48 49 50 51 51 45 45 44 46 57 58 59 59 57 57 58 59 58 58 59 58 57 55 54 55 56 55 56 55 54 54 55 55 54 52 51 53 55 56 57 58 58 56 54 54 54 55 54 54 49 46 45 44 45 46 42 41 41 42 44 44 43 44 44 46 48 47 45
57 54 52 54 50 50 48 48 48 48 49 48 49 49 52 56 58 58 59 59 59 59 59 58 59 59 57 54 51 52 53 55 54 55 55 55 54 54 55 55 53 51 50 52 54 55 56 57 56 55 53 52 53 55 54 54 50 44 44 46 46 49 45 41 41 41 43 44 44 45 45 44 45 44
60 60 52 50 53 53 52 51 52 52 53 51 49 51 53 55 56 56 56 56 59 59 59 59 58 53 51 53 54 53 53 54 53 54 55 55 54 54 55 55 53 52 49 49 49 50 50 54 53 55 57 55 52 51 47 50 51 47 45 45 48 47 43 42 41 40 42 43 42 42 43 45 44 44
58 56 55 55 54 53 53 52 52 53 53 52 52 52 53 54 55 56 56 57 57 58 57 57 56 55 54 54 54 52 52 52 52 53 55 56 55 53 55 54 53 50 49 47 47 47 49 50 52 52 52 52 53 50 48 48 46 45 45 44 46 46 43 45 45 43 41 42 44 45 44 44 44 45
56 56 57 56 54 54 54 53 52 52 53 53 52 52 48 52 54 54 55 57 58 58 56 58 56 55 54 54 52 51 51 51 51 52 50 54 54 52 52 53 53 52 52 50 47 47 46 46 46 46 45 44 45 48 50 52 50 44 46 47 46 48 46 44 45 43 43 45 46 45 44 45 45 44
56 55 55 54 55 54 55 54 55 54 54 53 53 53 52 53 52 51 54 56 53 53 55 55 56 55 55 55 52 52 52 50 50 50 53 54 54 54 52 53 52 50 51 50 48 47 48 47 47 45 45 46 46 47 44 47 52 44 43 44 47 49 47 43 44 43 44 45 47 47 47 47 48 46
50 56 56 55 56 56 55 55 55 56 56 55 55 54 52 52 52 53 54 55 56 55 55 54 54 54 54 55 53 53 51 48 49 49 50 52 52 52 53 53 52 50 50 49 48 48 48 48 49 47 45 45 45 43 46 44 45 46 44 44 44 46 47 43 43 43 43 45 46 48 43 46 49 49
49 55 57 58 57 56 56 56 57 57 57 57 57 56 54 52 52 54 54 54 55 54 54 54 52 52 51 51 49 48 47 47 49 47 48 51 52 52 51 50 48 50 51 52 51 48 49 49 49 49 48 45 44 43 44 41 41 44 50 47 43 44 45 43 42 41 43 45 45 47 49 49 50 51
54 56 56 57 58 58 57 58 58 56 57 56 57 56 56 55 55 55 55 54 53 52 52 53 50 48 51 48 49 48 47 46 47 46 45 49 50 50 51 51 51 50 52 52 49 48 49 50 49 50 50 45 44 44 43 43 43 46 44 50 44 43 44 43 41 41 42 44 45 47 48 44 50 50
56 55 56 56 57 59 58 58 58 58 58 57 56 56 56 56 56 56 54 54 54 54 54 53 51 48 49 50 49 47 46 44 45 45 47 49 49 50 50 50 49 51 51 48 48 48 48 49 50 51 51 49 47 48 47 44 44 47 44 44 49 43 42 45 43 46 44 41 43 43 44 43 40 35
55 57 57 57 58 58 58 59 58 58 58 58 58 58 58 55 56 56 54 50 53 54 54 52 50 47 49 49 47 47 46 46 46 47 46 47 47 49 50 49 47 49 48 46 45 46 47 49 49 49 53 53 49 47 46 45 42 39 41 44 43 46 45 46 44 44 44 45 44 42 42 43 44 44
54 55 57 58 58 58 58 58 59 59 58 58 59 54 56 57 56 55 53 53 51 52 50 50 48 48 48 48 48 46 45 46 48 49 48 47 45 45 45 42 46 48 47 43 47 48 47 51 48 42 45 42 43 48 47 47 48 46 44 44 41 41 42 45 49 46 44 45 44 43 42 42 43 41
54 55 57 57 58 58 59 58 59 59 58 57 57 56 56 55 52 48 51 48 53 49 49 48 47 46 46 48 46 45 46 46 46 46 45 46 45 43 42 44 46 46 47 45 46 49 49 45 42 44 47 46 45 46 45 45 46 46 43 40 39 39 40 41 42 45 49 45 43 42 41 40 40 41
52 54 56 56 58 58 59 59 58 58 57 56 56 56 56 54 54 52 53 52 51 49 49 48 48 47 47 47 47 47 47 45 45 44 44 44 45 45 44 44 46 46 47 48 46 46 45 46 46 46 45 44 45 47 46 44 45 44 39 39 39 38 38 40 41 40 41 43 46 47 49 45 43 41
54 54 55 56 57 57 58 58 57 54 55 55 55 55 55 52 52 53 52 50 48 48 48 49 49 47 46 46 47 46 47 48 46 45 45 44 44 45 45 44 43 45 45 45 43 42 42 43 45 45 43 44 45 46 45 42 42 41 42 40 36 37 38 39 41 41 39 40 39 39 41 44 46 45
54 54 55 55 55 56 56 56 55 54 54 54 54 54 53 52 50 52 53 51 48 47 46 48 48 48 47 46 45 45 46 45 46 46 46 45 44 43 42 43 43 43 44 43 42 40 40 41 42 44 45 44 43 45 44 42 42 38 37 37 38 39 39 37 40 42 43 44 41 38 39 39 39 39
MSLP
1015.55 1015.95 1016.15 1016.31 1016.43 1016.59 1016.75 1016.99 1017.19 1017.31 1017.55 1017.71 1017.87 1017.99 1018.47 1018.83 1019.75 1020.83 1021.15 1020.95 1020.83 1020.59 1020.39 1020.83 1020.67 1020.51 1020.67 1020.87 1021.03 1021.27 1021.35 1021.51 1021.75 1021.95 1022.07 1022.23 1022.43 1022.67 1022.91 1023.07 1023.23 1023.39 1023.55 1023.67 1023.79 1024.03 1024.31 1024.59 1024.91 1025.11 1025.27 1025.43 1025.59 1025.71 1025.83 1026.03 1026.07 1026.11 1026.27 1026.43 1026.75 1027.07 1027.27 1027.43 1027.59 1027.75 1027.91 1028.11 1028.27 1028.51 1028.71 1028.87 1028.99 1029.07
1015.19 1015.55 1015.79 1015.95 1016.15 1016.15 1016.47 1016.67 1016.83 1017.07 1017.19 1017.43 1017.63 1017.79 1017.87 1018.07 1018.79 1019.51 1020.07 1020.15 1020.15 1020.31 1020.15 1020.15 1020.51 1020.43 1020.55 1020.63 1020.91 1021.03 1021.23 1021.43 1021.67 1021.83 1021.99 1022.15 1022.35 1022.63 1022.87 1023.07 1023.27 1023.51 1023.67 1023.79 1023.91 1024.03 1024.19 1024.47 1024.67 1024.91 1025.11 1025.23 1025.39 1025.51 1025.63 1025.75 1025.87 1025.95 1026.11 1026.27 1026.63 1027.03 1027.27 1027.39 1027.59 1027.75 1027.91 1028.03 1028.15 1028.39 1028.59 1028.79 1028.99 1029.07
1014.87 1015.23 1015.51 1015.63 1015.79 1015.87 1016.11 1016.35 1016.63 1016.79 1016.99 1017.07 1017.27 1017.47 1017.67 1017.87 1017.91 1018.59 1019.11 1019.75 1019.63 1019.51 1020.11 1019.95 1019.91 1020.23 1020.35 1020.51 1020.75 1020.95 1021.15 1021.39 1021.59 1021.79 1021.99 1022.15 1022.39 1022.71 1022.95 1023.15 1023.35 1023.59 1023.79 1023.91 1024.03 1024.11 1024.27 1024.47 1024.63 1024.79 1024.99 1025.15 1025.15 1025.31 1025.39 1025.55 1025.67 1025.71 1025.91 1026.23 1026.67 1026.99 1027.19 1027.35 1027.51 1027.71 1027.83 1027.99 1028.15 1028.31 1028.51 1028.63 1028.87 1029.07
1014.51 1014.87 1015.15 1015.35 1015.51 1015.63 1015.87 1016.19 1016.39 1016.59 1016.71 1016.71 1016.95 1017.19 1017.47 1017.59 1017.71 1017.95 1018.55 1019.07 1019.35 1019.43 1019.47 1019.71 1019.83 1019.95 1020.27 1020.43 1020.75 1020.95 1021.11 1021.31 1021.55 1021.75 1021.99 1022.15 1022.47 1022.75 1022.91 1023.15 1023.35 1023.59 1023.79 1023.95 1024.07 1024.19 1024.31 1024.47 1024.63 1024.75 1024.87 1025.07 1025.07 1025.07 1025.23 1025.35 1025.51 1025.63 1025.79 1026.03 1026.43 1026.79 1027.07 1027.23 1027.39 1027.55 1027.75 1027.87 1028.03 1028.27 1028.43 1028.59 1028.75 1028.95
1014.15 1014.43 1014.71 1014.95 1015.19 1015.31 1015.67 1015.87 1016.07 1016.31 1016.47 1016.63 1016.71 1016.91 1017.19 1017.51 1017.71 1017.83 1018.27 1018.67 1019.23 1019.67 1019.51 1019.51 1019.79 1019.87 1020.11 1020.55 1020.55 1020.87 1021.11 1021.43 1021.63 1021.75 1021.95 1022.19 1022.47 1022.67 1022.83 1022.99 1023.23 1023.43 1023.67 1023.83 1023.99 1024.11 1024.23 1024.39 1024.55 1024.71 1024.71 1024.91 1024.99 1024.99 1025.11 1025.27 1025.43 1025.63 1025.75 1025.99 1026.23 1026.55 1026.83 1027.03 1027.23 1027.43 1027.55 1027.71 1027.91 1028.03 1028.23 1028.39 1028.51 1028.75
1013.91 1014.07 1014.31 1014.59 1014.95 1015.15 1015.35 1015.55 1015.79 1015.91 1016.27 1016.47 1016.71 1016.87 1017.03 1017.27 1017.55 1017.43 1017.79 1018.31 1018.59 1019.27 1019.51 1019.59 1019.59 1019.79 1019.91 1020.39 1020.39 1020.71 1021.03 1021.31 1021.51 1021.75 1021.99 1022.19 1022.23 1022.43 1022.63 1022.79 1022.95 1023.19 1023.39 1023.59 1023.75 1023.91 1024.07 1024.23 1024.39 1024.59 1024.63 1024.71 1024.95 1024.99 1025.19 1025.31 1025.43 1025.55 1025.75 1025.95 1026.15 1026.39 1026.63 1026.83 1027.03 1027.15 1027.27 1027.47 1027.63 1027.79 1027.99 1028.15 1028.27 1028.39
1013.71 1013.91 1013.95 1014.19 1014.59 1014.95 1015.27 1015.35 1015.43 1015.63 1015.87 1016.11 1016.35 1016.59 1016.71 1016.91 1017.11 1017.27 1017.15 1017.75 1018.43 1018.75 1019.27 1019.27 1019.51 1019.67 1019.83 1020.03 1020.31 1020.47 1020.67 1020.91 1021.23 1021.55 1021.79 1021.99 1022.11 1022.23 1022.35 1022.51 1022.63 1022.95 1023.11 1023.27 1023.43 1023.63 1023.83 1024.03 1024.19 1024.39 1024.55 1024.71 1024.83 1024.95 1025.23 1025.35 1025.47 1025.55 1025.71 1025.99 1026.27 1026.43 1026.55 1026.67 1026.83 1026.99 1027.11 1027.23 1027.43 1027.59 1027.71 1027.91 1028.07 1028.27
1013.43 1013.51 1013.75 1013.87 1014.27 1014.67 1015.03 1015.19 1015.31 1015.39 1015.51 1015.83 1016.03 1016.31 1016.43 1016.43 1016.79 1016.99 1017.07 1016.91 1017.51 1018.35 1018.95 1019.19 1019.19 1019.35 1019.67 1019.87 1019.95 1020.23 1020.59 1020.87 1021.19 1021.35 1021.59 1021.75 1021.95 1022.07 1022.27 1022.39 1022.51 1022.71 1022.95 1023.03 1023.19 1023.35 1023.55 1023.75 1023.95 1024.15 1024.35 1024.63 1024.79 1024.87 1025.19 1025.35 1025.51 1025.67 1025.67 1025.91 1026.15 1026.39 1026.51 1026.63 1026.75 1026.87 1026.95 1027.07 1027.27 1027.47 1027.67 1027.87 1028.03 1028.11
1013.03 1013.23 1013.31 1013.55 1013.99 1014.39 1014.75 1014.99 1015.15 1015.23 1015.35 1015.43 1015.67 1015.95 1016.15 1016.15 1016.31 1016.75 1016.91 1016.95 1017.03 1017.71 1018.19 1018.75 1018.91 1019.03 1019.31 1019.51 1019.83 1020.07 1020.55 1020.95 1021.07 1021.19 1021.43 1021.59 1021.75 1021.99 1022.11 1022.27 1022.39 1022.59 1022.91 1023.03 1023.11 1023.19 1023.35 1023.51 1023.67 1023.87 1024.11 1024.43 1024.63 1024.79 1025.07 1025.23 1025.39 1025.59 1025.75 1025.83 1025.99 1026.19 1026.35 1026.51 1026.67 1026.79 1026.87 1026.95 1027.07 1027.27 1027.47 1027.67 1027.87 1027.99
1012.59 1012.87 1013.03 1013.23 1013.59 1014.03 1014.31 1014.55 1014.79 1014.95 1015.03 1015.19 1015.39 1015.51 1015.71 1015.83 1016.07 1016.43 1016.79 1016.91 1017.03 1017.23 1017.71 1018.11 1018.75 1018.87 1019.07 1019.43 1019.67 1019.83 1020.11 1020.59 1020.99 1021.23 1021.31 1021.51 1021.63 1021.83 1022.15 1022.19 1022.31 1022.47 1022.79 1022.99 1023.15 1023.23 1023.31 1023.35 1023.55 1023.71 1023.91 1024.15 1024.43 1024.59 1024.87 1025.03 1025.19 1025.35 1025.55 1025.67 1025.79 1025.95 1026.11 1026.31 1026.51 1026.63 1026.75 1026.91 1026.99 1027.15 1027.27 1027.43 1027.63 1027.79
1012.27 1012.47 1012.67 1012.79 1013.11 1013.51 1013.67 1013.99 1014.31 1014.59 1014.79 1014.91 1015.03 1014.99 1015.15 1015.47 1015.83 1016.23 1016.51 1016.79 1017.03 1017.27 1017.79 1018.11 1018.07 1018.35 1018.59 1018.83 1019.43 1019.67 1019.79 1020.11 1020.27 1020.75 1021.27 1021.55 1021.59 1021.71 1021.79 1022.03 1022.15 1022.27 1022.55 1022.63 1022.79 1022.87 1022.99 1023.15 1023.35 1023.47 1023.63 1023.83 1024.11 1024.31 1024.59 1024.83 1024.99 1025.19 1025.39 1025.55 1025.59 1025.71 1025.87 1026.11 1026.27 1026.43 1026.55 1026.71 1026.87 1026.99 1027.15 1027.27 1027.39 1027.51
1012.03 1012.15 1012.27 1012.27 1012.51 1012.87 1013.07 1013.31 1013.55 1013.79 1014.19 1014.39 1014.63 1014.67 1014.75 1015.15 1015.59 1015.99 1016.35 1016.71 1016.95 1017.31 1017.67 1017.91 1018.23 1018.27 1018.43 1018.75 1018.95 1019.35 1019.79 1020.23 1020.39 1020.27 1020.51 1021.03 1021.35 1021.51 1021.43 1021.43 1021.79 1022.03 1022.23 1022.51 1022.75 1022.91 1023.03 1023.07 1023.11 1023.27 1023.47 1023.59 1023.71 1023.95 1024.27 1024.55 1024.79 1024.95 1025.15 1025.35 1025.43 1025.51 1025.67 1025.87 1026.03 1026.19 1026.35 1026.51 1026.67 1026.79 1026.87 1026.99 1027.19 1027.31
1011.87 1011.99 1011.99 1011.87 1011.87 1012.23 1012.47 1012.59 1012.75 1012.87 1013.11 1013.67 1014.23 1014.47 1014.59 1014.91 1015.31 1015.67 1016.03 1016.27 1016.67 1017.07 1017.35 1017.79 1018.03 1018.27 1018.43 1018.47 1018.71 1019.15 1019.39 1019.35 1019.35 1019.87 1020.11 1020.51 1020.67 1020.95 1021.31 1021.39 1021.43 1021.59 1021.95 1022.27 1022.47 1022.63 1022.59 1022.79 1022.87 1022.99 1023.27 1023.39 1023.59 1023.79 1023.95 1024.23 1024.43 1024.55 1024.79 1025.11 1025.27 1025.35 1025.43 1025.59 1025.83 1026.03 1026.19 1026.35 1026.47 1026.55 1026.63 1026.79 1026.95 1027.07
1011.79 1011.79 1011.79 1011.59 1011.51 1011.75 1011.99 1012.15 1012.31 1012.47 1012.67 1012.83 1013.07 1013.59 1014.11 1014.47 1014.91 1015.31 1015.67 1015.91 1016.07 1016.43 1016.99 1017.27 1017.67 1018.07 1018.15 1018.15 1018.19 1018.31 1018.35 1018.63 1019.15 1019.63 1019.95 1020.23 1020.39 1020.79 1021.11 1021.23 1021.31 1021.39 1021.71 1022.15 1022.47 1022.35 1022.39 1022.43 1022.59 1022.75 1022.83 1022.91 1023.19 1023.43 1023.75 1023.79 1023.99 1024.23 1024.39 1024.59 1024.87 1025.11 1025.23 1025.39 1025.59 1025.79 1026.03 1026.23 1026.35 1026.39 1026.51 1026.63 1026.75 1026.91
1011.75 1011.79 1011.71 1011.55 1011.39 1011.47 1011.63 1011.67 1011.83 1012.19 1012.55 1012.75 1012.91 1013.03 1013.15 1013.35 1013.91 1014.75 1015.27 1015.43 1015.51 1015.79 1016.07 1016.47 1017.03 1017.31 1017.55 1017.63 1017.63 1017.79 1018.03 1018.35 1018.59 1018.91 1019.31 1019.63 1020.11 1020.39 1020.71 1020.91 1021.07 1021.15 1021.23 1021.71 1021.95 1022.11 1022.19 1022.31 1022.39 1022.43 1022.39 1022.51 1022.79 1022.99 1023.11 1023.27 1023.55 1023.75 1023.99 1024.23 1024.55 1024.79 1024.95 1025.15 1025.35 1025.55 1025.75 1025.95 1026.07 1026.23 1026.39 1026.51 1026.59 1026.67
1011.39 1011.55 1011.63 1011.63 1011.47 1011.31 1011.23 1011.31 1011.71 1012.07 1012.31 1012.59 1012.79 1012.91 1013.03 1013.15 1013.27 1013.39 1013.99 1014.83 1015.47 1015.43 1015.63 1016.07 1016.19 1016.51 1016.83 1016.95 1017.23 1017.47 1017.75 1017.91 1018.23 1018.47 1018.83 1019.19 1019.51 1019.91 1020.15 1020.19 1020.27 1020.15 1020.63 1021.15 1021.59 1021.55 1021.87 1022.07 1022.03 1022.15 1022.11 1022.15 1022.23 1022.27 1022.47 1022.87 1023.15 1023.43 1023.63 1023.91 1024.19 1024.43 1024.63 1024.83 1025.07 1025.31 1025.47 1025.67 1025.83 1025.99 1026.15 1026.31 1026.39 1026.51
1010.87 1011.15 1011.39 1011.51 1011.39 1011.11 1011.19 1011.43 1011.51 1011.79 1012.15 1012.47 1012.55 1012.63 1012.75 1012.83 1012.99 1013.35 1013.51 1013.55 1013.79 1014.43 1014.79 1014.99 1015.43 1015.51 1015.71 1016.43 1016.63 1016.51 1016.67 1016.99 1017.59 1017.95 1018.39 1018.67 1018.99 1019.19 1019.51 1019.39 1019.35 1019.91 1020.07 1020.59 1021.15 1021.35 1021.59 1021.99 1022.11 1021.99 1021.83 1021.91 1021.99 1022.11 1022.31 1022.43 1022.67 1022.99 1023.27 1023.47 1023.79 1024.11 1024.31 1024.51 1024.83 1025.11 1025.31 1025.51 1025.63 1025.79 1025.95 1026.11 1026.27 1026.43
1010.35 1010.63 1010.95 1011.15 1011.19 1011.07 1011.15 1011.27 1011.43 1011.59 1011.75 1012.11 1012.59 1012.87 1012.99 1012.91 1012.91 1013.03 1013.03 1013.11 1013.23 1013.43 1013.71 1014.07 1014.43 1014.51 1014.67 1015.03 1015.07 1015.43 1016.03 1016.63 1016.91 1017.23 1017.51 1017.83 1018.27 1018.59 1018.43 1018.35 1018.79 1019.51 1019.83 1020.07 1020.59 1021.07 1021.43 1021.79 1021.99 1021.87 1021.71 1021.87 1021.91 1021.91 1021.91 1022.11 1022.31 1022.59 1022.91 1023.15 1023.43 1023.75 1023.99 1024.19 1024.51 1024.79 1024.99 1025.15 1025.31 1025.47 1025.67 1025.87 1026.07 1026.23
1009.59 1009.91 1010.23 1010.43 1010.55 1010.71 1010.91 1010.95 1011.11 1011.35 1011.59 1011.91 1012.27 1012.55 1012.71 1012.67 1012.59 1012.71 1012.83 1012.91 1013.03 1013.15 1012.99 1013.15 1013.23 1013.55 1013.79 1013.75 1014.07 1014.71 1015.27 1015.47 1015.59 1015.71 1016.07 1016.47 1016.83 1017.31 1017.99 1018.55 1018.83 1019.35 1019.51 1019.67 1020.23 1020.47 1020.87 1021.51 1021.71 1021.55 1021.63 1021.87 1021.87 1021.91 1021.95 1022.07 1022.19 1022.39 1022.63 1022.91 1023.19 1023.43 1023.67 1023.91 1024.11 1024.39 1024.59 1024.79 1024.95 1025.11 1025.31 1025.51 1025.75 1025.91
1008.83 1009.11 1009.43 1009.75 1010.03 1010.19 1010.39 1010.43 1010.67 1010.83 1011.11 1011.51 1011.83 1012.11 1012.19 1012.39 1012.47 1012.39 1011.95 1012.07 1012.19 1012.23 1012.35 1012.51 1012.71 1012.87 1013.03 1013.11 1013.59 1014.11 1014.63 1015.07 1015.35 1015.79 1016.19 1016.59 1017.11 1017.55 1017.95 1018.19 1018.67 1018.83 1019.27 1019.31 1019.67 1019.95 1020.35 1021.03 1021.19 1021.27 1021.71 1021.95 1021.99 1022.03 1021.99 1021.95 1022.07 1022.27 1022.47 1022.63 1022.83 1023.07 1023.31 1023.63 1023.83 1024.07 1024.27 1024.51 1024.67 1024.83 1025.03 1025.23 1025.43 1025.67
1008.35 1008.55 1008.75 1009.03 1009.35 1009.63 1009.79 1009.91 1010.27 1010.59 1010.83 1011.11 1011.35 1011.51 1011.71 1011.87 1012.15 1012.07 1011.91 1012.11 1012.27 1012.39 1012.47 1012.55 1012.63 1012.75 1012.91 1013.19 1013.47 1013.75 1014.11 1014.47 1014.83 1015.47 1016.11 1016.39 1016.51 1017.15 1017.47 1017.67 1018.15 1018.31 1018.91 1019.03 1019.07 1019.35 1019.79 1020.63 1020.87 1021.27 1021.91 1021.95 1021.91 1021.99 1021.95 1021.91 1021.95 1022.07 1022.23 1022.39 1022.55 1022.75 1023.03 1023.27 1023.51 1023.75 1023.99 1024.19 1024.35 1024.51 1024.71 1024.91 1025.15 1025.39
1008.07 1008.11 1008.23 1008.47 1008.79 1009.07 1009.19 1009.39 1009.87 1010.19 1010.43 1010.63 1010.79 1011.03 1011.35 1011.75 1011.91 1011.63 1011.59 1011.87 1012.03 1012.31 1012.59 1012.79 1012.95 1012.99 1012.87 1012.91 1013.23 1013.43 1013.59 1013.95 1014.15 1014.59 1015.11 1015.23 1015.91 1016.39 1016.67 1016.95 1017.35 1017.87 1018.43 1018.43 1018.59 1019.19 1019.23 1020.31 1020.75 1021.19 1022.03 1022.19 1022.03 1021.91 1021.87 1021.91 1021.95 1022.07 1022.19 1022.27 1022.35 1022.51 1022.71 1022.95 1023.23 1023.47 1023.71 1023.91 1024.07 1024.27 1024.47 1024.71 1024.99 1025.23
1007.79 1007.87 1007.95 1008.07 1008.19 1008.31 1008.39 1008.87 1009.31 1009.67 1009.91 1010.03 1010.19 1010.47 1010.95 1011.31 1011.35 1010.87 1010.99 1011.39 1011.79 1012.27 1012.67 1012.83 1012.99 1013.03 1012.99 1013.07 1012.91 1012.83 1013.39 1013.75 1013.71 1013.55 1013.71 1014.47 1015.11 1015.63 1016.03 1016.39 1017.27 1017.83 1018.03 1017.95 1018.03 1018.47 1019.23 1020.07 1020.39 1020.67 1021.59 1021.51 1021.31 1021.51 1021.51 1021.75 1021.75 1021.87 1021.91 1022.07 1022.23 1022.35 1022.55 1022.75 1022.99 1023.19 1023.43 1023.63 1023.83 1024.03 1024.27 1024.51 1024.75 1024.95
1007.63 1007.71 1007.75 1007.79 1007.79 1007.79 1007.99 1008.43 1008.83 1009.15 1009.39 1009.43 1009.55 1009.95 1010.47 1010.67 1010.59 1009.83 1010.31 1010.55 1010.79 1011.27 1011.63 1011.75 1012.03 1012.15 1012.39 1012.71 1012.87 1013.03 1013.51 1013.63 1013.27 1013.15 1013.31 1013.67 1014.03 1014.59 1015.19 1015.67 1016.07 1016.03 1015.91 1016.83 1017.27 1017.39 1018.31 1019.03 1019.63 1020.03 1019.79 1019.75 1019.83 1020.95 1021.31 1021.51 1021.63 1021.75 1021.79 1021.95 1022.07 1022.23 1022.47 1022.71 1022.91 1023.07 1023.19 1023.39 1023.55 1023.79 1024.07 1024.27 1024.39 1024.67
1007.15 1007.35 1007.43 1007.31 1007.31 1007.43 1007.67 1008.03 1008.39 1008.67 1008.91 1008.87 1008.91 1009.23 1009.47 1009.31 1008.79 1009.15 1009.91 1010.15 1010.55 1010.87 1011.15 1011.47 1011.91 1012.11 1012.19 1012.31 1012.55 1012.51 1012.75 1013.07 1013.07 1012.99 1013.07 1013.11 1013.23 1013.67 1014.35 1014.99 1015.59 1015.39 1015.31 1015.95 1016.39 1016.83 1017.95 1018.59 1019.03 1019.83 1020.03 1019.83 1020.11 1020.91 1021.27 1021.39 1021.63 1021.71 1021.79 1021.83 1021.95 1022.19 1022.35 1022.51 1022.59 1022.83 1023.07 1023.27 1023.43 1023.63 1023.87 1024.03 1024.19 1024.35
1006.59 1006.63 1006.71 1006.79 1006.79 1006.99 1007.27 1007.63 1007.87 1008.07 1008.31 1008.55 1008.75 1008.59 1008.43 1008.31 1008.71 1009.07 1009.23 1009.71 1010.31 1010.47 1010.87 1011.31 1011.67 1011.91 1011.99 1012.03 1012.23 1012.19 1012.19 1012.43 1012.63 1012.51 1012.59 1012.75 1012.83 1012.99 1013.15 1013.63 1014.39 1015.11 1014.91 1015.67 1015.95 1016.03 1017.03 1018.43 1018.31 1019.15 1019.43 1019.75 1020.15 1020.51 1021.15 1021.35 1021.51 1021.67 1021.79 1021.83 1021.83 1021.95 1022.03 1022.19 1022.47 1022.67 1022.87 1023.03 1023.27 1023.43 1023.63 1023.87 1024.03 1024.23
1005.91 1005.91 1006.03 1006.15 1006.39 1006.63 1006.83 1007.07 1007.35 1007.59 1007.79 1008.23 1008.51 1008.11 1007.95 1008.11 1008.55 1008.87 1009.19 1009.51 1009.91 1010.15 1010.55 1010.99 1011.19 1011.35 1011.47 1011.55 1011.59 1011.67 1011.67 1011.83 1012.07 1012.19 1012.11 1012.27 1012.51 1012.75 1012.99 1013.15 1013.27 1013.55 1014.03 1014.99 1015.31 1015.43 1015.87 1016.59 1017.51 1017.91 1018.47 1018.79 1019.07 1020.47 1020.31 1020.27 1020.87 1021.71 1021.87 1021.87 1021.79 1021.91 1021.95 1021.99 1022.23 1022.43 1022.67 1022.83 1023.03 1023.35 1023.59 1023.79 1023.91 1024.15
1005.47 1005.63 1005.71 1005.87 1005.99 1006.23 1006.43 1006.67 1006.99 1007.15 1007.31 1007.75 1007.79 1007.79 1007.75 1008.31 1008.75 1008.75 1008.91 1009.35 1009.39 1009.59 1010.11 1010.67 1010.75 1010.83 1010.83 1010.79 1010.83 1010.67 1010.51 1010.87 1011.43 1011.71 1011.95 1012.19 1012.31 1012.59 1012.95 1013.27 1013.47 1013.87 1014.11 1014.51 1015.07 1015.39 1015.55 1016.11 1016.95 1017.11 1017.31 1018.07 1018.47 1019.03 1019.15 1019.91 1020.67 1021.03 1020.99 1021.63 1021.83 1021.95 1022.03 1022.11 1022.15 1022.31 1022.55 1022.71 1022.99 1023.27 1023.47 1023.67 1023.87 1024.15
1005.03 1005.11 1005.31 1005.55 1005.71 1005.95 1006.27 1006.47 1006.59 1006.83 1007.07 1007.15 1007.11 1007.27 1008.03 1008.75 1008.91 1008.67 1008.71 1008.79 1009.03 1009.31 1009.51 1009.67 1009.79 1009.91 1010.03 1009.87 1009.63 1009.79 1010.19 1010.75 1011.43 1011.91 1012.11 1012.35 1012.67 1012.91 1013.15 1013.43 1013.63 1013.83 1013.99 1014.23 1014.51 1014.79 1015.07 1015.47 1016.07 1016.67 1017.19 1017.43 1017.63 1017.79 1018.11 1018.71 1019.75 1020.47 1020.67 1021.31 1021.67 1021.75 1021.99 1022.03 1021.99 1022.07 1022.31 1022.59 1022.75 1023.03 1022.99 1023.03 1023.43 1023.67
1004.79 1004.95 1005.11 1005.31 1005.47 1005.67 1005.91 1006.35 1006.75 1007.07 1007.15 1007.07 1007.11 1007.87 1008.63 1008.55 1008.43 1008.47 1008.59 1008.87 1008.95 1008.83 1008.71 1008.71 1008.87 1008.83 1009.31 1009.95 1010.15 1010.19 1010.15 1010.43 1010.87 1011.23 1011.71 1012.15 1012.59 1012.95 1013.27 1013.67 1013.95 1014.11 1014.11 1014.11 1014.19 1014.39 1014.71 1015.07 1015.55 1016.15 1016.67 1017.07 1017.11 1017.39 1017.83 1018.51 1019.35 1019.95 1020.51 1020.47 1020.51 1021.51 1021.87 1021.91 1021.95 1021.95 1022.15 1022.43 1022.63 1022.75 1022.67 1022.75 1022.87 1023.23
1004.79 1004.87 1005.07 1005.19 1005.35 1005.63 1005.87 1006.11 1006.31 1006.63 1006.87 1007.39 1007.99 1008.23 1008.15 1008.03 1007.91 1007.99 1007.99 1007.99 1008.03 1008.03 1008.11 1008.27 1008.27 1008.51 1009.27 1010.11 1010.59 1010.43 1010.15 1010.03 1010.35 1010.67 1011.15 1011.71 1012.15 1012.63 1012.87 1013.15 1013.71 1014.19 1014.35 1014.27 1014.23 1014.27 1014.51 1014.79 1015.27 1015.63 1016.23 1016.79 1017.15 1017.19 1017.55 1017.75 1018.23 1019.55 1020.07 1020.11 1020.19 1019.39 1020.47 1021.47 1021.71 1021.87 1021.95 1022.15 1022.39 1022.55 1022.75 1022.87 1022.99 1023.11
1004.51 1004.67 1004.87 1005.23 1005.43 1005.63 1005.87 1006.15 1006.39 1006.63 1006.79 1007.03 1007.51 1007.75 1007.71 1007.43 1007.23 1007.23 1007.35 1007.55 1007.63 1007.59 1007.59 1007.75 1008.19 1008.95 1009.55 1009.83 1009.83 1009.91 1009.75 1009.63 1010.03 1010.47 1010.87 1011.27 1011.83 1012.27 1012.59 1012.91 1013.11 1013.75 1014.39 1014.55 1014.51 1014.55 1014.59 1014.79 1015.11 1015.35 1015.39 1015.91 1016.51 1017.23 1017.83 1017.79 1017.79 1018.55 1019.27 1019.75 1019.67 1019.83 1020.47 1020.71 1021.15 1021.55 1021.83 1022.03 1022.35 1022.43 1022.47 1022.55 1022.63 1022.75
1004.19 1004.35 1004.59 1004.75 1004.95 1005.11 1005.27 1005.59 1005.83 1006.11 1006.47 1006.71 1007.07 1007.23 1007.31 1007.31 1007.19 1007.23 1007.43 1007.43 1007.19 1007.03 1007.39 1007.67 1007.99 1008.39 1009.07 1009.31 1009.63 1009.59 1009.59 1009.63 1009.95 1010.31 1010.63 1010.95 1011.31 1012.07 1012.23 1012.27 1012.59 1013.35 1013.75 1014.39 1014.59 1014.67 1014.75 1014.95 1015.23 1015.39 1015.63 1015.91 1016.07 1016.59 1017.19 1017.87 1018.07 1018.39 1018.63 1019.35 1019.55 1019.63 1020.19 1020.27 1020.39 1020.87 1021.63 1021.83 1021.67 1021.79 1022.11 1022.27 1022.19 1022.23
1003.95 1004.07 1004.07 1004.31 1004.55 1004.79 1005.03 1005.23 1005.67 1005.99 1006.27 1006.39 1006.67 1006.83 1006.87 1006.83 1006.79 1006.71 1006.75 1006.79 1006.63 1006.79 1007.03 1007.07 1007.55 1007.99 1008.47 1008.75 1009.23 1009.23 1009.11 1009.63 1009.99 1010.19 1010.19 1010.67 1011.07 1011.67 1011.91 1011.99 1012.23 1012.67 1012.87 1013.47 1014.07 1014.35 1014.79 1015.11 1015.43 1015.79 1015.99 1016.27 1016.47 1016.55 1016.55 1016.51 1017.11 1018.23 1018.35 1018.63 1018.99 1018.99 1019.51 1019.95 1020.15 1020.55 1020.71 1020.51 1020.67 1021.31 1021.55 1021.63 1021.75 1021.95
1003.67 1003.79 1003.87 1004.03 1004.15 1004.19 1004.47 1004.55 1004.51 1004.79 1005.15 1005.51 1005.75 1005.99 1006.27 1006.47 1006.47 1006.55 1006.55 1006.47 1006.51 1006.79 1006.95 1006.95 1007.11 1007.51 1007.91 1008.11 1008.67 1008.67 1008.63 1008.99 1009.71 1010.23 1010.35 1010.47 1010.83 1011.07 1011.43 1011.59 1011.91 1012.47 1012.63 1012.99 1013.67 1014.07 1014.31 1014.83 1015.23 1015.79 1016.19 1016.31 1016.51 1016.67 1016.75 1016.71 1016.51 1017.63 1018.27 1018.59 1018.43 1018.39 1018.95 1019.71 1019.87 1020.31 1020.39 1020.47 1020.51 1020.43 1020.63 1020.91 1021.07 1021.43
1003.19 1003.11 1003.19 1003.31 1003.43 1003.55 1003.75 1003.83 1003.95 1004.23 1004.43 1004.71 1005.03 1005.27 1005.63 1005.87 1006.03 1006.15 1006.03 1005.87 1006.07 1006.35 1006.67 1006.99 1007.23 1007.35 1007.55 1007.67 1008.11 1008.03 1008.11 1008.59 1009.27 1009.71 1010.15 1010.27 1010.51 1010.75 1010.95 1011.11 1011.35 1012.03 1012.27 1012.51 1013.15 1013.67 1013.91 1014.23 1014.47 1014.95 1015.55 1016.15 1016.31 1016.43 1015.95 1016.39 1016.51 1016.79 1017.31 1017.79 1018.31 1018.39 1018.63 1019.43 1019.75 1019.99 1020.23 1020.27 1020.27 1020.15 1020.35 1020.43 1020.39 1020.63
1002.75 1002.71 1002.59 1002.51 1002.67 1003.03 1003.23 1003.39 1003.51 1003.67 1003.87 1004.07 1004.31 1004.51 1004.75 1005.07 1005.39 1005.51 1005.35 1005.51 1005.75 1006.03 1006.31 1006.75 1007.07 1007.23 1007.43 1007.55 1007.83 1007.83 1007.91 1008.31 1008.71 1009.23 1009.55 1009.79 1010.03 1010.43 1010.67 1010.99 1011.19 1011.43 1011.71 1011.83 1012.39 1013.15 1013.35 1013.71 1013.95 1013.99 1014.31 1015.15 1015.59 1015.35 1015.15 1016.27 1016.51 1016.51 1016.23 1016.51 1017.55 1018.07 1018.31 1019.03 1019.55 1019.91 1019.91 1019.79 1020.03 1020.03 1019.71 1019.71 1019.79 1019.99
1002.19 1002.23 1002.23 1002.15 1002.15 1002.23 1002.47 1002.63 1002.91 1003.11 1003.31 1003.55 1003.79 1004.07 1004.27 1004.27 1004.43 1004.55 1004.75 1005.35 1005.63 1005.79 1006.07 1006.39 1006.67 1007.11 1007.19 1007.43 1007.51 1007.55 1007.63 1007.87 1008.19 1008.95 1009.39 1009.47 1009.67 1010.07 1010.07 1010.31 1010.71 1011.15 1011.19 1011.63 1012.31 1012.75 1012.91 1013.03 1013.31 1013.39 1013.47 1014.07 1014.51 1014.71 1015.03 1015.83 1016.11 1016.03 1016.03 1016.03 1016.47 1017.47 1018.03 1018.47 1018.91 1019.07 1019.55 1019.79 1019.67 1019.63 1019.83 1019.87 1019.63 1019.83
1001.71 1001.75 1001.79 1001.71 1001.71 1001.83 1002.07 1002.23 1002.43 1002.63 1002.75 1003.07 1003.43 1003.67 1003.71 1003.79 1003.87 1003.91 1004.15 1004.39 1004.63 1005.07 1005.47 1005.87 1006.23 1006.71 1006.87 1007.03 1007.03 1007.03 1007.27 1007.63 1008.15 1008.47 1008.83 1008.91 1008.79 1008.91 1009.39 1009.87 1010.35 1010.71 1011.07 1011.67 1012.19 1012.43 1012.71 1012.51 1012.51 1012.47 1012.47 1012.67 1012.63 1012.27 1013.03 1014.43 1014.63 1014.51 1015.43 1015.83 1015.95 1016.95 1017.55 1017.43 1017.63 1018.11 1018.63 1019.39 1019.71 1020.03 1020.23 1020.43 1020.63 1020.75
1001.15 1001.11 1001.15 1001.27 1001.27 1001.39 1001.47 1001.55 1001.75 1001.83 1002.03 1002.15 1002.43 1002.63 1002.79 1003.07 1003.23 1003.35 1003.63 1004.15 1004.39 1004.47 1004.55 1004.95 1005.51 1006.27 1006.51 1006.63 1006.71 1006.99 1007.35 1007.47 1007.43 1007.39 1007.83 1008.11 1008.35 1008.31 1008.59 1009.19 1009.87 1010.51 1011.03 1011.35 1011.79 1011.91 1011.95 1011.75 1011.67 1011.47 1011.31 1011.39 1011.87 1012.51 1013.11 1013.67 1014.55 1015.35 1015.51 1015.87 1015.95 1015.83 1016.15 1016.75 1016.99 1017.39 1018.07 1018.31 1018.95 1019.71 1020.03 1020.43 1020.23 1020.39
1001.27 1001.19 1001.03 1000.91 1000.87 1000.83 1000.87 1000.91 1000.99 1001.23 1001.43 1001.55 1001.75 1001.95 1002.19 1002.39 1002.83 1003.39 1003.83 1003.91 1003.95 1004.15 1004.59 1005.11 1005.59 1006.03 1006.39 1006.55 1006.59 1006.63 1006.87 1007.19 1007.19 1007.07 1007.35 1007.75 1008.07 1008.35 1008.39 1008.91 1009.55 1009.83 1010.15 1010.71 1010.59 1010.83 1010.67 1010.23 1010.91 1011.47 1011.87 1012.43 1012.79 1013.07 1013.55 1013.91 1013.79 1014.39 1015.03 1015.55 1015.99 1016.19 1016.23 1016.07 1016.07 1016.55 1016.87 1017.75 1018.51 1018.87 1019.35 1019.79 1019.87 1020.23
1001.11 1001.11 1000.91 1000.75 1000.71 1000.59 1000.67 1000.79 1000.87 1000.95 1000.99 1001.11 1001.31 1001.51 1001.71 1002.07 1002.55 1002.71 1002.79 1002.79 1003.31 1003.91 1004.31 1004.67 1005.07 1005.35 1005.55 1005.59 1005.79 1005.95 1005.99 1006.23 1006.47 1006.67 1007.07 1007.51 1008.03 1008.55 1008.75 1008.71 1008.71 1009.11 1009.23 1009.55 1009.47 1009.43 1010.11 1011.19 1011.59 1011.79 1012.11 1012.43 1012.59 1012.51 1012.91 1013.07 1013.23 1013.75 1014.51 1015.31 1015.91 1016.23 1016.27 1016.43 1016.55 1016.43 1016.35 1016.91 1017.91 1018.75 1019.39 1020.15 1020.27 1019.99
1000.95 1000.75 1000.59 1000.51 1000.59 1000.67 1000.67 1000.79 1000.91 1000.95 1000.95 1001.03 1001.15 1001.19 1001.35 1001.75 1002.11 1002.27 1002.23 1002.47 1002.95 1003.23 1003.43 1003.71 1004.07 1004.47 1004.83 1005.19 1005.23 1005.27 1005.47 1005.79 1006.11 1006.39 1006.83 1007.19 1007.31 1007.51 1007.87 1007.95 1007.75 1008.07 1008.35 1008.59 1009.35 1010.03 1010.59 1010.99 1011.43 1011.63 1011.95 1012.03 1011.95 1011.79 1012.11 1012.83 1012.99 1013.47 1014.35 1014.87 1015.59 1016.15 1016.31 1016.43 1016.55 1016.67 1016.71 1016.55 1016.35 1016.51 1016.91 1017.51 1018.79 1018.87
1000.79 1000.79 1000.71 1000.59 1000.55 1000.51 1000.51 1000.59 1000.63 1000.67 1000.75 1000.87 1000.87 1000.95 1001.07 1001.39 1001.59 1001.63 1001.79 1002.03 1002.51 1002.79 1002.95 1003.15 1003.43 1003.83 1004.07 1004.39 1004.75 1005.19 1005.27 1004.95 1004.99 1005.27 1005.59 1005.83 1005.99 1006.07 1006.47 1007.39 1008.07 1008.47 1008.75 1009.19 1009.67 1010.11 1010.55 1010.75 1010.91 1011.11 1011.43 1011.47 1011.63 1011.79 1011.75 1012.59 1013.15 1013.55 1013.87 1014.59 1015.35 1015.79 1016.03 1016.43 1016.63 1016.83 1016.87 1016.83 1016.75 1016.79 1016.95 1016.91 1016.91 1017.07
1000.99 1000.91 1000.75 1000.63 1000.55 1000.47 1000.39 1000.43 1000.47 1000.51 1000.55 1000.63 1000.67 1000.63 1000.71 1000.95 1001.11 1001.11 1001.11 1001.31 1001.75 1002.07 1002.39 1002.51 1002.67 1002.79 1003.07 1003.59 1004.15 1004.67 1004.75 1004.71 1004.71 1004.75 1004.91 1005.39 1006.03 1006.51 1006.99 1007.19 1007.55 1008.07 1008.43 1008.79 1009.35 1010.03 1010.43 1010.59 1010.79 1010.99 1010.83 1010.91 1011.19 1011.11 1011.39 1011.91 1012.43 1013.51 1014.11 1014.43 1014.67 1015.19 1015.51 1015.91 1016.11 1016.27 1016.27 1016.27 1016.43 1016.67 1016.79 1016.95 1017.19 1017.43
Wind_Speed
7 7 9 8 7 7 7 6 6 7 6 6 7 7 8 7 5 5 5 5 6 6 7 5 7 7 7 5 5 6 7 9 10 7 6 7 6 10 12 11 11 11 10 9 12 13 14 14 15 14 13 13 14 12 13 13 12 13 14 13 13 12 11 11 15 15 15 14 14 13 12 12 12 13
7 7 7 7 7 6 7 7 7 7 7 7 7 7 6 7 7 5 5 5 7 6 7 6 6 7 7 6 6 5 6 10 12 8 6 7 6 11 12 12 11 9 9 7 8 10 13 14 14 14 13 13 14 15 13 14 13 12 12 11 13 13 13 13 16 16 16 15 14 14 14 14 13 12
7 8 9 7 7 6 7 7 6 6 7 7 7 6 6 7 6 7 6 2 3 7 7 7 7 7 8 7 5 5 5 9 11 8 6 7 9 12 10 12 11 10 10 8 6 8 11 13 13 14 14 13 14 13 14 15 14 13 12 12 12 14 14 14 17 16 16 14 13 13 14 14 15 14
7 8 9 8 7 6 6 6 7 7 7 7 7 7 7 6 6 7 6 6 3 6 6 7 8 9 8 7 7 7 5 7 13 7 5 6 10 8 6 12 12 10 11 10 9 10 10 11 12 13 14 14 13 15 15 13 11 11 10 14 17 15 15 14 16 17 15 14 13 14 13 13 14 14
8 9 9 9 8 7 7 7 7 7 7 6 6 6 6 6 6 7 6 6 3 1 1 6 6 8 8 7 8 7 6 6 8 6 5 6 6 6 6 7 12 12 12 11 11 11 11 11 12 13 14 14 13 11 11 11 10 7 10 16 17 17 17 15 15 16 14 15 14 14 15 15 15 16
8 8 9 8 8 8 9 8 8 7 7 7 6 6 6 6 7 6 7 5 6 5 3 5 5 7 8 6 7 9 8 7 7 8 6 5 7 6 6 7 7 13 13 13 13 12 12 12 12 12 10 11 11 9 3 6 10 11 11 15 16 16 16 15 15 15 14 15 15 15 15 15 13 15
8 9 9 8 7 6 8 8 8 7 8 7 7 8 7 7 7 7 6 6 5 6 6 6 7 7 8 7 8 8 7 8 8 8 7 6 6 5 6 7 6 12 14 15 14 14 13 12 13 12 11 8 12 11 6 4 8 12 13 15 14 15 15 15 15 14 13 13 15 15 14 15 13 13
9 11 9 8 8 8 9 8 7 7 7 7 6 7 7 7 8 7 6 6 6 4 7 7 8 8 8 5 7 6 6 7 8 7 6 6 6 6 6 6 7 10 15 16 15 15 14 14 14 14 12 9 11 12 9 6 6 8 13 16 15 15 15 15 15 14 13 14 14 13 13 13 14 12
10 10 10 8 8 9 9 8 8 7 9 8 7 7 7 7 7 6 7 6 6 7 7 7 5 7 6 4 6 7 7 6 6 6 8 8 8 7 7 6 6 9 15 14 16 15 14 14 15 15 14 11 11 11 10 9 9 10 11 13 15 15 16 15 15 14 13 13 13 13 12 12 13 15
10 10 9 8 8 9 10 9 8 8 10 8 8 9 8 7 7 8 7 6 6 8 7 9 7 8 8 5 5 9 8 8 7 7 6 6 7 8 6 5 5 4 5 5 7 10 12 14 14 14 14 13 12 11 11 11 11 12 12 14 15 16 16 15 15 13 11 10 12 13 13 14 14 14
10 10 9 9 9 10 10 9 9 9 8 8 9 10 10 8 8 8 8 7 7 7 7 7 8 9 8 7 7 6 8 8 8 9 7 7 7 6 9 8 6 5 5 8 11 10 10 11 10 12 14 14 13 13 12 12 12 11 12 13 14 15 15 14 14 14 12 11 10 12 14 15 16 15
9 9 9 9 10 10 10 9 9 10 10 8 8 8 7 8 8 8 7 7 7 7 6 8 9 8 8 8 4 7 7 7 6 8 9 10 9 9 8 8 7 7 6 6 5 6 8 10 12 13 13 15 15 14 12 13 12 13 13 14 14 15 15 14 14 14 11 11 11 12 13 15 14 14
8 8 8 9 10 11 12 15 13 13 12 9 8 7 7 8 8 8 7 8 7 6 6 6 7 8 9 8 9 10 11 12 11 8 8 8 8 7 6 7 7 8 9 6 4 6 7 7 7 6 6 7 10 11 13 11 15 15 14 13 14 14 14 14 14 12 11 10 10 9 10 13 14 13
8 9 9 9 13 15 16 16 17 17 16 15 12 10 8 9 8 8 9 8 8 8 8 8 10 11 11 11 11 11 10 8 6 8 9 9 8 7 7 6 5 6 7 7 7 6 5 7 6 6 9 9 10 8 7 7 9 12 15 15 15 14 14 14 14 12 11 11 10 10 10 11 12 12
8 8 9 8 11 14 15 16 19 16 16 16 15 16 17 14 13 9 9 8 9 9 9 8 10 10 12 11 10 10 8 9 11 9 9 8 8 10 9 8 2 4 9 8 7 7 7 7 8 8 8 8 9 9 10 13 15 16 15 16 15 14 14 14 13 13 13 13 12 11 11 10 10 11
8 9 8 8 7 9 12 11 12 14 16 16 16 16 17 17 17 16 14 10 8 8 8 8 10 11 12 12 11 9 9 10 9 10 9 10 9 10 9 8 8 6 11 8 8 9 7 9 8 7 9 9 9 11 13 17 16 16 16 16 15 15 15 14 13 13 13 13 13 12 13 13 12 11
9 8 8 8 8 8 11 10 9 9 11 13 17 17 18 18 18 16 17 16 15 11 11 12 11 9 9 9 11 13 13 11 11 9 9 9 9 8 9 10 10 5 10 8 8 9 7 9 8 9 8 8 8 9 13 17 18 17 17 17 16 15 15 14 13 12 12 12 12 12 13 13 12 11
10 10 9 9 9 8 7 8 9 9 10 10 9 8 8 9 13 15 18 19 19 16 13 12 11 11 10 11 12 12 10 13 13 11 10 9 9 10 13 10 7 4 11 12 8 7 5 7 8 10 7 6 7 8 12 17 17 18 17 17 17 16 15 15 14 14 13 14 13 12 12 12 13 12
11 11 10 10 10 9 8 8 11 10 9 9 9 10 11 10 10 10 11 11 11 11 11 12 13 12 13 13 11 12 13 14 11 12 14 14 13 10 4 5 4 5 8 8 7 8 4 6 8 9 5 5 7 6 7 14 16 16 16 16 16 16 15 15 15 15 15 14 14 13 13 12 12 11
11 11 11 10 10 10 10 12 16 14 10 10 10 11 11 10 10 11 13 15 15 14 13 12 11 10 12 13 10 11 12 11 8 6 4 5 6 7 7 9 5 5 7 8 9 6 4 6 10 7 3 4 6 5 5 8 13 14 15 16 16 16 15 14 14 15 15 15 14 13 13 12 12 11
11 11 11 11 10 11 11 13 17 16 14 11 12 12 12 11 10 11 9 11 14 14 12 8 7 9 13 14 16 18 20 14 11 8 9 10 10 10 10 9 7 8 7 8 8 6 4 6 8 4 2 5 6 6 5 4 8 12 13 14 15 15 15 15 15 15 15 15 14 14 14 13 12 11
9 11 17 14 12 12 12 15 17 18 16 12 12 12 12 10 11 12 8 6 7 11 11 8 5 7 13 17 17 18 20 20 16 13 13 13 9 10 9 9 8 6 7 9 9 7 5 5 6 4 1 0 3 3 3 4 4 7 8 11 12 13 13 14 14 14 14 14 14 13 13 12 11 7
8 9 11 17 15 14 15 17 18 19 17 13 13 12 11 11 12 13 11 11 10 8 7 8 6 5 7 8 12 13 18 19 17 14 13 11 13 12 9 9 6 5 6 8 12 9 5 7 7 6 4 4 4 3 5 5 4 4 4 5 6 10 11 12 13 14 14 14 14 13 13 13 10 4
8 8 8 12 19 19 18 17 19 19 21 15 13 11 11 12 15 12 10 13 12 12 13 13 12 12 9 8 8 7 10 12 16 14 11 11 11 11 10 11 11 10 8 9 14 10 4 6 7 9 5 3 4 3 4 5 4 4 4 4 4 7 9 10 9 13 13 13 14 13 13 14 11 5
9 9 9 9 15 20 19 18 19 20 21 20 14 12 13 14 17 9 9 12 14 12 12 11 9 9 9 9 8 9 9 9 11 11 11 11 12 12 11 12 11 11 7 8 19 9 7 8 6 9 5 2 1 3 3 5 4 4 5 4 5 6 7 7 5 6 9 12 12 13 12 13 13 9
10 11 11 11 14 19 19 18 20 21 20 22 14 14 18 20 15 10 11 8 10 10 8 9 9 9 10 9 9 10 10 11 12 12 12 12 12 12 11 12 12 10 10 10 21 12 8 8 9 10 9 5 2 2 4 4 4 5 4 5 4 5 8 9 6 5 5 5 6 9 9 13 12 12
12 11 12 12 15 18 20 21 21 20 22 17 15 20 20 18 16 11 7 8 9 9 9 9 10 10 10 11 11 11 10 10 11 11 12 12 11 10 9 8 9 9 5 12 16 12 9 6 9 10 10 8 5 3 2 4 4 4 3 5 6 5 6 4 7 6 6 6 5 8 8 10 11 11
11 11 11 11 17 19 20 21 20 20 21 15 20 21 21 14 12 9 8 8 10 11 9 10 10 10 11 11 11 12 12 11 11 10 9 9 9 9 7 6 5 6 10 10 13 12 11 7 8 9 8 11 9 8 6 1 2 8 8 6 4 4 5 6 5 5 5 5 5 5 5 5 5 6
11 12 15 17 18 18 18 20 21 19 19 21 20 22 16 10 8 10 9 10 9 10 10 11 11 11 12 13 13 9 8 8 7 6 6 5 5 3 4 3 3 5 6 8 11 11 11 10 9 9 8 7 8 7 6 5 5 6 7 9 5 7 6 7 7 7 6 5 5 6 7 7 6 6
16 15 16 18 19 18 18 13 11 8 12 18 20 10 10 9 9 9 9 8 10 11 12 12 12 12 10 9 6 7 8 9 10 9 8 8 7 7 7 6 2 2 3 8 10 11 11 9 9 10 9 7 8 7 7 6 4 4 7 7 4 4 5 7 7 7 8 8 8 6 5 5 6 7
11 13 13 11 12 9 13 13 11 9 9 8 4 6 9 10 10 10 11 12 13 12 11 10 10 8 5 5 6 7 9 9 8 8 9 8 8 8 8 8 7 5 1 2 6 8 9 10 7 10 9 7 6 6 7 6 5 6 7 6 8 7 7 10 8 7 8 7 7 7 5 4 4 6
11 9 9 8 4 5 4 6 4 6 7 8 8 8 9 11 11 12 13 10 9 10 10 9 5 4 6 9 9 7 7 8 7 8 9 10 9 8 9 8 9 7 5 3 3 3 5 6 7 6 9 10 10 6 4 7 6 6 6 7 7 1 4 11 10 9 8 7 6 7 7 9 8 6
9 6 6 6 7 7 8 7 8 8 7 7 9 10 9 9 10 9 9 11 13 12 10 9 9 10 8 7 6 7 8 7 8 9 9 9 9 7 8 10 9 9 8 5 5 4 5 5 4 5 4 4 4 9 10 7 5 5 6 8 7 5 4 5 8 9 9 8 8 7 8 7 5 5
4 6 8 7 6 7 6 6 5 7 8 9 8 9 10 10 10 10 10 11 11 10 10 11 10 10 10 9 8 8 9 7 7 9 9 9 8 9 9 9 8 8 8 9 8 8 7 5 6 6 6 5 3 5 7 9 8 6 6 7 8 8 5 5 6 8 11 8 8 6 5 5 5 5
8 7 7 7 7 8 8 9 10 10 10 10 10 10 9 8 10 9 10 11 9 9 10 10 10 10 12 11 9 8 10 9 8 9 8 7 9 9 8 8 8 8 9 8 8 8 8 10 9 7 4 3 2 2 1 3 5 6 5 5 7 8 7 6 6 7 7 4 5 7 5 4 5 5
7 9 9 9 9 9 9 9 8 8 8 8 9 8 8 9 9 10 12 12 11 10 10 10 9 10 10 10 9 9 9 9 9 9 10 9 10 9 9 10 9 9 9 9 10 8 9 9 11 11 10 7 7 5 8 6 5 8 9 7 6 6 5 6 5 5 6 5 5 6 5 7 8 6
7 8 9 9 7 7 8 8 8 8 8 9 9 9 9 9 9 10 12 9 10 10 10 10 10 10 9 9 9 7 9 11 10 10 10 9 9 10 10 8 10 9 11 11 9 9 9 10 11 11 12 10 9 11 7 3 5 6 8 8 7 7 7 7 7 6 6 6 6 7 8 6 6 5
10 9 9 9 9 9 9 8 8 8 8 8 8 8 9 10 9 11 10 9 10 9 8 10 8 9 9 9 10 10 9 9 9 9 9 10 11 12 12 12 12 10 11 9 9 10 9 10 11 11 11 12 11 9 7 3 1 6 13 8 8 7 7 7 6 5 6 6 7 6 3 3 5 1
9 9 9 10 9 8 9 9 9 9 9 8 8 8 9 9 9 9 9 10 11 11 10 10 10 10 9 10 9 8 10 10 9 10 11 11 12 13 11 10 10 9 10 9 9 10 10 12 13 13 13 12 15 14 10 9 10 5 9 13 5 8 7 9 7 7 7 7 6 2 0 3 4 3
10 10 9 9 9 8 9 9 9 10 10 10 10 10 10 10 10 10 9 9 9 11 12 12 11 10 10 10 9 7 6 10 12 13 13 12 12 12 12 11 10 10 9 9 10 11 13 13 13 14 15 9 2 4 5 4 3 2 2 7 10 12 10 9 6 7 6 6 6 5 3 2 3 0
7 8 8 9 9 9 9 9 10 9 10 9 9 8 10 9 8 4 6 9 9 11 7 7 8 9 9 9 9 10 11 11 11 11 11 10 9 10 12 10 9 10 11 11 14 13 16 15 8 7 8 7 8 8 6 3 3 3 3 4 6 6 7 12 9 10 6 8 9 6 5 5 4 2
8 8 8 8 8 8 7 8 7 7 8 8 8 9 9 8 7 13 13 14 11 8 9 10 10 11 11 12 11 10 11 12 11 11 10 8 8 8 10 11 11 11 12 14 16 14 6 7 8 9 7 7 7 8 7 9 6 4 3 3 3 2 2 7 7 3 6 11 7 4 2 1 1 2
6 7 7 7 6 6 6 6 5 6 6 6 7 8 8 8 8 12 11 11 10 10 10 10 10 9 9 9 10 11 11 10 10 11 12 12 13 13 13 14 14 13 12 10 6 7 8 9 8 9 8 7 7 8 9 7 6 5 4 3 4 3 1 0 5 4 7 15 17 11 10 6 5 3
5 5 7 7 7 7 7 7 7 5 6 6 8 8 8 7 9 11 11 9 8 9 10 10 9 9 10 9 8 7 9 12 13 14 15 15 15 15 12 9 8 10 10 7 7 6 6 8 8 10 10 10 8 8 9 8 6 5 6 4 3 5 5 2 2 2 2 6 10 6 3 7 1 3
4 5 6 6 7 7 7 6 5 6 6 7 7 8 7 7 7 10 10 10 8 9 10 11 11 11 10 9 10 10 11 13 12 11 11 10 9 8 8 12 11 10 10 9 9 8 7 8 7 6 8 8 8 9 8 9 8 6 5 6 7 6 5 5 5 5 4 4 5 8 4 5 3 4
Wind_Direction
191 187 189 199 204 196 186 183 183 185 178 176 174 173 173 175 149 179 208 222 198 180 182 174 195 186 183 170 168 167 178 172 170 177 169 167 164 173 165 170 174 183 186 193 177 175 170 163 159 162 171 170 170 173 170 171 183 175 179 182 169 164 156 161 156 160 159 161 166 165 166 166 174 165
188 190 191 195 205 192 177 189 184 181 186 174 178 183 184 168 174 169 183 222 196 191 193 180 182 189 184 178 167 172 175 169 174 177 172 168 170 169 168 168 171 175 179 182 186 180 173 176 177 174 175 178 173 175 179 176 185 188 190 181 163 159 162 165 163 165 168 169 169 169 172 175 178 178
191 193 198 194 207 190 190 182 177 184 178 188 176 184 161 181 179 163 171 190 236 190 191 193 180 179 182 177 167 163 168 173 177 178 174 175 166 166 168 169 170 173 171 178 168 159 170 178 184 179 181 192 182 182 183 185 190 189 191 173 145 160 166 169 170 173 176 177 177 173 178 179 178 184
194 197 201 195 199 195 181 175 175 180 193 184 175 173 175 178 175 161 158 194 205 193 193 188 177 178 171 167 171 176 159 171 180 174 171 171 160 167 163 173 171 173 174 175 171 166 173 179 185 189 187 190 197 190 185 188 195 196 188 154 151 158 169 174 178 181 184 187 184 183 186 191 185 190
198 201 204 197 196 182 183 185 174 177 178 177 179 170 164 168 163 161 165 182 167 166 141 181 170 172 166 170 180 167 164 162 185 185 162 158 161 168 168 172 176 176 176 174 173 173 172 175 182 197 195 189 200 199 196 193 186 159 145 158 159 163 170 174 181 188 193 192 196 192 189 196 191 191
207 202 206 203 184 181 192 182 179 176 166 173 166 174 176 177 177 185 159 176 153 174 151 164 160 159 171 173 174 174 171 170 172 180 171 168 176 172 168 176 180 182 181 178 178 178 176 178 179 196 213 188 198 217 179 206 178 155 156 165 167 169 172 174 182 192 194 195 199 197 197 202 202 196
201 204 210 202 178 172 182 191 188 170 171 168 173 180 180 180 182 183 177 139 164 162 184 165 165 170 174 181 177 178 178 170 173 174 173 172 180 179 177 180 178 186 187 186 183 183 181 180 182 186 208 194 188 214 164 185 208 161 163 166 170 174 177 179 185 195 196 193 199 204 198 196 209 198
201 208 206 201 176 173 184 187 182 178 168 169 176 176 187 178 171 180 179 177 143 163 164 190 176 174 169 177 173 163 165 165 173 181 170 173 180 176 181 187 185 188 190 189 188 187 185 185 186 187 197 191 196 206 170 167 181 181 166 167 171 179 184 186 190 196 198 196 198 202 200 199 211 210
205 206 208 188 175 179 189 187 182 175 174 178 171 180 179 182 165 163 183 174 153 150 174 170 172 163 169 156 163 164 159 171 179 171 177 184 184 190 191 190 195 178 189 192 193 191 190 190 192 189 195 187 196 202 173 176 168 177 178 174 176 181 187 192 194 197 206 201 193 195 199 202 210 216
206 208 200 182 178 187 195 193 183 177 183 174 181 180 177 174 156 163 173 172 164 159 162 161 158 171 167 157 165 178 173 163 170 183 183 179 191 189 189 191 184 156 170 179 198 199 197 195 196 194 193 191 192 199 182 179 179 180 185 184 184 187 192 193 191 194 195 197 197 197 199 205 211 216
207 204 194 181 182 197 201 192 183 182 185 183 190 190 177 165 160 163 165 169 163 154 150 168 173 170 175 165 164 173 178 178 179 177 171 189 189 194 197 201 197 175 181 198 195 195 195 195 198 200 197 193 193 194 186 184 184 179 183 195 194 193 192 191 192 189 187 193 200 204 206 208 212 213
207 203 196 186 186 202 202 196 190 184 186 185 192 194 174 160 162 163 161 160 158 153 160 170 176 181 168 168 145 149 162 172 199 191 179 189 189 199 203 203 188 193 183 173 181 199 196 201 203 200 202 199 196 193 187 185 179 180 187 194 196 196 190 187 195 197 190 192 197 200 203 208 207 209
210 209 204 197 190 198 202 200 195 194 187 178 184 186 178 164 169 164 168 166 160 163 160 168 169 171 177 175 162 164 180 192 191 174 180 190 194 189 192 209 202 189 189 184 160 187 192 184 193 187 188 205 198 193 186 189 190 187 188 191 199 198 188 188 195 198 195 201 203 205 205 203 203 203
218 217 213 208 194 195 202 202 202 200 193 187 185 177 181 173 172 175 171 173 172 165 169 175 173 179 190 186 189 183 194 176 162 162 177 193 188 173 199 204 203 166 179 178 194 209 187 191 186 186 200 196 187 184 188 194 187 194 191 192 199 194 191 193 196 196 191 196 200 200 205 203 201 200
218 227 227 223 205 199 205 206 204 200 196 194 192 184 185 181 180 176 177 184 181 175 180 172 177 186 193 197 191 194 179 181 183 177 178 186 166 177 181 201 188 200 180 189 199 212 201 192 195 201 203 191 187 188 195 192 190 192 194 197 197 193 192 196 197 200 195 193 196 196 205 214 206 197
215 220 225 227 224 216 214 209 201 201 199 197 196 191 192 192 193 184 182 184 188 190 178 174 188 186 197 196 192 191 181 183 181 188 186 184 176 181 193 200 204 190 184 190 202 219 187 199 209 209 209 198 193 195 193 191 191 194 194 196 195 195 196 197 202 206 204 202 198 193 199 207 209 206
213 213 215 223 226 232 223 213 200 191 198 204 202 197 196 198 197 200 199 189 190 186 196 194 194 190 184 184 197 195 192 180 181 177 186 189 189 191 199 210 211 179 179 184 204 219 197 191 209 219 212 200 197 200 194 191 190 194 196 195 196 197 197 197 203 208 208 210 209 200 197 199 204 208
211 209 210 215 224 226 215 207 202 196 196 187 194 205 209 211 212 207 203 203 199 188 196 197 201 200 183 188 197 192 169 173 186 180 191 181 194 196 209 210 196 125 169 187 183 214 194 196 205 221 214 194 202 206 200 193 192 193 197 198 197 200 199 197 199 202 207 208 208 205 202 196 195 197
206 206 207 212 217 210 206 201 200 196 195 189 195 201 206 212 204 203 211 209 206 203 207 203 209 194 197 202 187 171 182 190 186 184 188 186 195 192 98 71 116 147 184 175 160 214 180 185 208 224 208 193 208 204 193 193 197 197 198 198 198 200 202 199 199 201 206 206 202 200 197 195 195 197
205 204 203 205 207 206 209 208 198 196 188 190 195 202 210 213 216 222 221 210 205 204 205 207 206 202 197 198 168 165 177 192 185 171 130 142 170 174 188 203 164 180 185 183 177 187 186 185 197 214 183 176 207 202 205 196 195 198 198 199 200 200 200 201 201 203 204 204 201 196 192 190 189 189
204 202 201 201 203 206 212 205 194 196 182 199 201 206 209 209 209 227 221 213 218 228 233 231 213 185 181 174 165 168 179 182 170 159 168 184 184 185 191 201 177 198 167 192 193 173 182 187 196 178 196 204 212 207 209 196 196 194 199 200 200 200 199 202 202 203 203 200 197 195 191 187 183 181
204 206 201 198 201 204 212 199 189 193 189 203 206 208 211 207 215 227 210 197 214 215 220 221 205 187 186 184 176 177 183 178 166 171 186 187 171 189 191 197 191 172 174 193 174 165 200 150 170 152 124 267 261 217 202 192 185 192 200 202 201 198 198 198 200 200 200 198 196 194 186 185 173 165
207 208 202 199 201 206 210 191 189 192 193 205 208 208 206 213 219 224 198 198 199 193 202 226 203 230 215 192 190 198 185 179 183 189 189 168 181 190 191 191 152 168 225 193 172 183 181 152 180 152 136 218 227 193 195 189 186 183 169 180 195 200 193 194 194 195 196 195 192 187 182 173 163 154
207 204 205 208 207 207 207 190 191 193 196 203 210 204 202 213 224 220 195 205 198 199 199 210 202 207 194 195 198 184 182 194 196 196 187 178 181 186 188 193 188 200 195 174 172 187 155 153 162 191 184 157 211 182 184 191 187 183 170 165 171 189 186 184 193 195 192 189 185 182 178 172 168 151
208 208 209 209 210 210 206 192 193 197 201 206 207 202 209 209 223 196 192 203 194 206 208 212 196 199 194 200 188 190 181 189 202 200 197 190 191 186 185 191 194 217 194 163 175 175 156 175 162 176 212 212 104 137 194 198 185 189 193 180 172 176 179 189 181 181 185 182 179 177 177 174 176 176
212 212 211 214 210 206 205 198 198 201 203 208 209 212 213 218 203 170 199 183 191 211 199 203 197 196 200 201 195 194 191 192 198 202 197 197 195 198 193 187 189 204 210 175 174 177 138 177 172 172 192 183 170 150 147 201 198 198 184 197 189 167 182 186 179 171 170 170 171 178 180 179 180 187
216 215 214 215 207 204 204 203 201 202 206 206 209 218 218 213 182 174 169 175 189 206 195 196 204 200 202 205 204 197 197 198 198 202 201 198 195 198 204 206 209 201 137 150 186 176 168 149 164 167 178 188 166 156 198 171 189 161 190 200 197 187 192 165 176 175 174 173 168 165 167 179 183 188
219 219 217 214 210 210 206 204 202 205 206 202 211 218 222 190 170 184 178 171 199 202 192 198 207 207 208 210 208 205 200 191 195 199 197 198 196 193 190 181 167 122 142 157 174 183 185 165 169 192 167 169 178 180 192 136 90 178 187 178 188 195 190 191 183 171 170 165 152 166 168 172 183 179
222 221 212 213 214 213 208 207 207 208 207 208 210 215 202 165 187 199 196 196 192 202 206 207 207 210 208 207 209 194 158 139 133 142 175 171 169 152 139 131 129 143 145 163 174 181 185 181 172 165 173 181 183 191 180 174 157 180 177 161 199 208 198 197 191 186 176 172 174 176 189 180 174 184
222 216 213 213 217 215 212 206 200 191 207 215 219 204 162 194 201 206 201 198 198 211 214 212 213 213 202 200 185 165 158 155 171 171 169 158 171 165 162 152 123 46 151 170 180 182 185 185 173 163 171 180 197 182 180 139 172 164 166 187 127 110 198 194 195 189 182 188 190 192 194 188 178 172
224 223 219 221 221 223 214 215 213 214 210 213 190 149 189 200 209 207 205 199 204 211 216 217 223 216 161 106 125 173 173 179 173 168 164 170 174 168 178 179 179 168 98 162 181 182 182 181 162 160 164 177 190 201 179 183 151 155 184 178 167 188 176 180 193 193 192 189 187 195 189 181 189 198
226 222 220 214 187 182 156 183 166 180 189 195 186 199 203 211 214 216 217 216 219 223 218 221 189 112 135 181 191 179 183 174 163 163 166 176 174 178 172 189 198 179 156 134 130 130 160 156 155 171 187 174 180 176 108 193 183 165 165 178 195 67 145 178 183 188 185 173 174 194 196 198 198 189
213 199 186 196 197 179 193 185 185 187 193 198 199 204 208 213 215 209 201 207 212 212 204 204 195 197 181 188 183 184 172 173 164 169 172 178 171 172 180 192 188 181 178 167 159 139 131 110 94 133 148 152 171 156 162 184 205 153 165 175 190 189 180 182 173 169 160 171 194 188 196 203 201 191
170 196 213 202 186 188 188 179 171 183 197 203 199 206 211 211 212 209 210 215 220 211 207 208 199 197 193 191 183 182 179 158 167 173 175 171 170 166 186 198 196 191 182 177 169 164 142 107 101 84 70 73 54 168 184 189 185 174 183 170 181 191 175 172 174 163 173 182 176 175 197 204 202 198
189 195 199 198 197 201 196 201 206 197 194 200 203 207 202 207 211 212 213 216 216 210 211 211 206 197 198 196 183 185 180 166 161 168 183 168 176 186 186 196 190 184 189 178 170 164 158 153 145 125 83 85 120 257 284 232 180 167 143 185 189 188 169 174 164 173 180 170 182 186 189 204 203 195
193 199 201 200 204 199 203 211 210 204 205 204 206 206 199 207 208 207 216 211 206 210 210 209 206 202 201 197 190 190 173 161 158 163 172 180 185 191 193 200 190 186 183 181 172 165 167 166 167 164 170 175 186 202 227 204 178 160 166 178 187 190 163 153 163 160 173 183 186 180 185 199 213 186
202 209 212 213 203 191 203 213 215 216 210 213 212 208 204 204 206 212 220 203 204 208 208 203 208 205 202 199 189 188 166 164 169 172 174 179 186 191 196 200 195 187 190 193 172 164 168 171 182 176 176 177 187 208 206 96 233 234 186 164 167 181 162 155 156 175 198 186 173 191 198 194 210 198
213 211 214 216 211 206 206 212 213 217 217 213 214 211 214 216 207 210 205 195 209 208 205 206 209 204 204 193 183 188 178 173 161 160 174 181 183 193 199 198 199 196 197 184 176 177 178 176 183 187 177 182 192 202 194 194 144 221 216 188 163 165 159 154 167 177 180 189 200 198 176 206 222 166
209 213 213 217 215 210 208 211 210 216 218 213 210 213 217 216 216 214 197 198 198 199 200 204 204 199 197 197 199 186 175 168 165 178 190 195 194 191 192 190 191 191 185 180 182 185 188 193 190 190 189 186 197 202 177 158 207 187 183 199 148 141 176 172 176 175 167 175 196 140 228 20 27 67
211 213 214 215 219 212 216 214 213 214 217 214 211 212 217 215 213 213 200 196 201 204 203 199 193 186 198 193 191 182 174 175 183 189 193 195 196 194 189 187 178 178 186 186 182 193 197 202 192 195 198 193 143 88 129 129 61 46 135 187 190 176 170 172 176 168 182 186 145 155 184 170 218 170
225 221 226 220 223 220 218 218 217 213 218 218 214 212 211 218 202 152 162 206 211 207 197 182 182 190 195 201 191 180 184 194 200 200 195 197 193 195 187 171 177 183 183 192 197 197 203 204 179 110 95 92 128 102 96 136 179 155 175 187 193 220 200 194 173 169 165 153 162 174 170 181 191 172
216 224 229 229 228 232 228 235 233 226 221 213 211 208 212 195 159 175 195 212 197 169 182 188 188 192 198 195 193 194 196 195 197 199 195 189 190 192 188 187 189 189 190 195 199 203 165 93 117 127 137 126 135 155 180 185 187 169 168 143 152 147 147 215 255 256 164 148 143 144 133 111 108 201
237 243 245 245 246 251 252 248 247 237 234 221 221 215 211 190 181 188 208 204 191 186 194 197 197 196 197 197 200 200 197 194 195 194 189 192 192 191 193 198 200 193 196 200 168 146 149 154 147 149 156 164 177 174 184 185 179 167 152 153 169 158 100 85 207 176 174 185 177 172 172 158 144 203
244 245 251 256 254 247 243 241 240 221 212 213 219 219 212 189 199 204 205 207 187 189 195 198 196 193 198 201 203 204 208 206 198 195 195 198 198 200 195 182 175 184 190 178 163 162 151 164 170 160 163 186 178 176 185 165 179 174 172 154 132 160 168 130 137 127 159 206 234 265 275 192 114 118
275 267 261 255 252 253 251 236 223 213 207 213 220 227 223 200 203 214 217 207 196 193 192 197 197 198 193 184 183 199 211 219 213 209 202 195 193 190 179 183 186 182 185 178 163 164 167 168 171 174 184 184 177 184 175 170 172 156 158 162 180 177 161 151 165 185 198 214 207 202 199 203 230 65